Year,Month,Day,Hour,Minute,Value (Times are PST for temperature in C)
2016,12,16,00,00,-9.70
2016,12,16,00,01,-9.70
2016,12,16,00,02,-9.70
2016,12,16,00,03,-9.70
2016,12,16,00,04,-9.70
2016,12,16,00,05,-9.70
2016,12,16,00,06,-9.70
2016,12,16,00,07,-9.80
2016,12,16,00,08,-9.70
2016,12,16,00,09,-9.80
2016,12,16,00,10,-9.80
2016,12,16,00,11,-9.80
2016,12,16,00,12,-9.80
2016,12,16,00,13,-9.80
2016,12,16,00,14,-9.80
2016,12,16,00,15,-9.80
2016,12,16,00,16,-9.80
2016,12,16,00,17,-9.80
2016,12,16,00,18,-9.80
2016,12,16,00,19,-9.80
2016,12,16,00,20,-9.80
2016,12,16,00,21,-9.80
2016,12,16,00,22,-9.80
2016,12,16,00,23,-9.80
2016,12,16,00,24,-9.80
2016,12,16,00,25,-9.80
2016,12,16,00,26,-9.80
2016,12,16,00,27,-9.80
2016,12,16,00,28,-9.80
2016,12,16,00,29,-9.80
2016,12,16,00,30,-9.80
2016,12,16,00,31,-9.80
2016,12,16,00,32,-9.80
2016,12,16,00,33,-9.80
2016,12,16,00,34,-9.80
2016,12,16,00,35,-9.80
2016,12,16,00,36,-9.80
2016,12,16,00,37,-9.80
2016,12,16,00,38,-9.80
2016,12,16,00,39,-9.80
2016,12,16,00,40,-9.80
2016,12,16,00,41,-9.90
2016,12,16,00,42,-9.80
2016,12,16,00,43,-9.80
2016,12,16,00,44,-9.80
2016,12,16,00,45,-9.80
2016,12,16,00,46,-9.80
2016,12,16,00,47,-9.80
2016,12,16,00,48,-9.90
2016,12,16,00,49,-9.90
2016,12,16,00,50,-9.90
2016,12,16,00,51,-9.90
2016,12,16,00,52,-9.90
2016,12,16,00,53,-9.90
2016,12,16,00,54,-9.90
2016,12,16,00,55,-9.90
2016,12,16,00,56,-9.90
2016,12,16,00,57,-9.90
2016,12,16,00,58,-9.90
2016,12,16,00,59,-10.00
2016,12,16,01,00,-10.00
2016,12,16,01,01,-10.00
2016,12,16,01,02,-10.00
2016,12,16,01,03,-10.00
2016,12,16,01,04,-10.00
2016,12,16,01,05,-10.10
2016,12,16,01,06,-10.10
2016,12,16,01,07,-10.10
2016,12,16,01,08,-10.10
2016,12,16,01,09,-10.10
2016,12,16,01,10,-10.10
2016,12,16,01,11,-10.10
2016,12,16,01,12,-10.10
2016,12,16,01,13,-10.10
2016,12,16,01,14,-10.10
2016,12,16,01,15,-10.10
2016,12,16,01,16,-10.10
2016,12,16,01,17,-10.10
2016,12,16,01,18,-10.10
2016,12,16,01,19,-10.10
2016,12,16,01,20,-10.10
2016,12,16,01,21,-10.10
2016,12,16,01,22,-10.10
2016,12,16,01,23,-10.10
2016,12,16,01,24,-10.10
2016,12,16,01,25,-10.10
2016,12,16,01,26,-10.10
2016,12,16,01,27,-10.10
2016,12,16,01,28,-10.10
2016,12,16,01,29,-10.10
2016,12,16,01,30,-10.10
2016,12,16,01,31,-10.10
2016,12,16,01,32,-10.10
2016,12,16,01,33,-10.10
2016,12,16,01,34,-10.10
2016,12,16,01,35,-10.10
2016,12,16,01,36,-10.10
2016,12,16,01,37,-10.10
2016,12,16,01,38,-10.20
2016,12,16,01,39,-10.20
2016,12,16,01,40,-10.20
2016,12,16,01,41,-10.20
2016,12,16,01,42,-10.20
2016,12,16,01,43,-10.20
2016,12,16,01,44,-10.20
2016,12,16,01,45,-10.20
2016,12,16,01,46,-10.20
2016,12,16,01,47,-10.20
2016,12,16,01,48,-10.20
2016,12,16,01,49,-10.20
2016,12,16,01,50,-10.30
2016,12,16,01,51,-10.30
2016,12,16,01,52,-10.30
2016,12,16,01,53,-10.30
2016,12,16,01,54,-10.30
2016,12,16,01,55,-10.30
2016,12,16,01,56,-10.30
2016,12,16,01,57,-10.30
2016,12,16,01,58,-10.30
2016,12,16,01,59,-10.40
2016,12,16,02,00,-10.40
2016,12,16,02,01,-10.40
2016,12,16,02,02,-10.40
2016,12,16,02,03,-10.40
2016,12,16,02,04,-10.40
2016,12,16,02,05,-10.40
2016,12,16,02,06,-10.40
2016,12,16,02,07,-10.40
2016,12,16,02,08,-10.30
2016,12,16,02,09,-10.30
2016,12,16,02,10,-10.30
2016,12,16,02,11,-10.30
2016,12,16,02,12,-10.30
2016,12,16,02,13,-10.30
2016,12,16,02,14,-10.40
2016,12,16,02,15,-10.40
2016,12,16,02,16,-10.40
2016,12,16,02,17,-10.40
2016,12,16,02,18,-10.40
2016,12,16,02,19,-10.40
2016,12,16,02,20,-10.40
2016,12,16,02,21,-10.40
2016,12,16,02,22,-10.40
2016,12,16,02,23,-10.50
2016,12,16,02,24,-10.50
2016,12,16,02,25,-10.50
2016,12,16,02,26,-10.50
2016,12,16,02,27,-10.60
2016,12,16,02,28,-10.60
2016,12,16,02,29,-10.70
2016,12,16,02,30,-10.70
2016,12,16,02,31,-10.70
2016,12,16,02,32,-10.70
2016,12,16,02,33,-10.70
2016,12,16,02,34,-10.70
2016,12,16,02,35,-10.70
2016,12,16,02,36,-10.70
2016,12,16,02,37,-10.70
2016,12,16,02,38,-10.70
2016,12,16,02,39,-10.70
2016,12,16,02,40,-10.70
2016,12,16,02,41,-10.80
2016,12,16,02,42,-10.80
2016,12,16,02,43,-10.80
2016,12,16,02,44,-10.80
2016,12,16,02,45,-10.80
2016,12,16,02,46,-10.80
2016,12,16,02,47,-10.80
2016,12,16,02,48,-10.80
2016,12,16,02,49,-10.80
2016,12,16,02,50,-10.80
2016,12,16,02,51,-10.80
2016,12,16,02,52,-10.80
2016,12,16,02,53,-10.80
2016,12,16,02,54,-10.80
2016,12,16,02,55,-10.80
2016,12,16,02,56,-10.80
2016,12,16,02,57,-10.80
2016,12,16,02,58,-10.70
2016,12,16,02,59,-10.70
2016,12,16,03,00,-10.70
2016,12,16,03,01,-10.70
2016,12,16,03,02,-10.70
2016,12,16,03,03,-10.70
2016,12,16,03,04,-10.70
2016,12,16,03,05,-10.70
2016,12,16,03,06,-10.70
2016,12,16,03,07,-10.70
2016,12,16,03,08,-10.70
2016,12,16,03,09,-10.70
2016,12,16,03,10,-10.70
2016,12,16,03,11,-10.80
2016,12,16,03,12,-10.80
2016,12,16,03,13,-10.80
2016,12,16,03,14,-10.80
2016,12,16,03,15,-10.70
2016,12,16,03,16,-10.70
2016,12,16,03,17,-10.70
2016,12,16,03,18,-10.70
2016,12,16,03,19,-10.70
2016,12,16,03,20,-10.70
2016,12,16,03,21,-10.70
2016,12,16,03,22,-10.70
2016,12,16,03,23,-10.70
2016,12,16,03,24,-10.70
2016,12,16,03,25,-10.70
2016,12,16,03,26,-10.70
2016,12,16,03,27,-10.70
2016,12,16,03,28,-10.70
2016,12,16,03,29,-10.70
2016,12,16,03,30,-10.70
2016,12,16,03,31,-10.80
2016,12,16,03,32,-10.80
2016,12,16,03,33,-10.80
2016,12,16,03,34,-10.80
2016,12,16,03,35,-10.80
2016,12,16,03,36,-10.80
2016,12,16,03,37,-10.80
2016,12,16,03,38,-10.80
2016,12,16,03,39,-10.80
2016,12,16,03,40,-10.80
2016,12,16,03,41,-10.80
2016,12,16,03,42,-10.80
2016,12,16,03,43,-10.80
2016,12,16,03,44,-10.80
2016,12,16,03,45,-10.80
2016,12,16,03,46,-10.80
2016,12,16,03,47,-10.80
2016,12,16,03,48,-10.80
2016,12,16,03,49,-10.80
2016,12,16,03,50,-10.80
2016,12,16,03,51,-10.80
2016,12,16,03,52,-10.80
2016,12,16,03,53,-10.80
2016,12,16,03,54,-10.80
2016,12,16,03,55,-10.80
2016,12,16,03,56,-10.80
2016,12,16,03,57,-10.80
2016,12,16,03,58,-10.80
2016,12,16,03,59,-10.80
2016,12,16,04,00,-10.80
2016,12,16,04,01,-10.80
2016,12,16,04,02,-10.80
2016,12,16,04,03,-10.90
2016,12,16,04,04,-10.90
2016,12,16,04,05,-10.90
2016,12,16,04,06,-10.90
2016,12,16,04,07,-10.90
2016,12,16,04,08,-10.90
2016,12,16,04,09,-10.90
2016,12,16,04,10,-10.90
2016,12,16,04,11,-10.90
2016,12,16,04,12,-10.90
2016,12,16,04,13,-10.90
2016,12,16,04,14,-10.90
2016,12,16,04,15,-11.00
2016,12,16,04,16,-11.00
2016,12,16,04,17,-11.00
2016,12,16,04,18,-11.00
2016,12,16,04,19,-11.00
2016,12,16,04,20,-11.00
2016,12,16,04,21,-11.10
2016,12,16,04,22,-11.10
2016,12,16,04,23,-11.10
2016,12,16,04,24,-11.10
2016,12,16,04,25,-11.10
2016,12,16,04,26,-11.10
2016,12,16,04,27,-11.10
2016,12,16,04,28,-11.10
2016,12,16,04,29,-11.10
2016,12,16,04,30,-11.10
2016,12,16,04,31,-11.10
2016,12,16,04,32,-11.10
2016,12,16,04,33,-11.10
2016,12,16,04,34,-11.10
2016,12,16,04,35,-11.10
2016,12,16,04,36,-11.20
2016,12,16,04,37,-11.20
2016,12,16,04,38,-11.20
2016,12,16,04,39,-11.20
2016,12,16,04,40,-11.20
2016,12,16,04,41,-11.20
2016,12,16,04,42,-11.20
2016,12,16,04,43,-11.20
2016,12,16,04,44,-11.20
2016,12,16,04,45,-11.20
2016,12,16,04,46,-11.20
2016,12,16,04,47,-11.20
2016,12,16,04,48,-11.20
2016,12,16,04,49,-11.20
2016,12,16,04,50,-11.20
2016,12,16,04,51,-11.30
2016,12,16,04,52,-11.30
2016,12,16,04,53,-11.30
2016,12,16,04,54,-11.30
2016,12,16,04,55,-11.30
2016,12,16,04,56,-11.30
2016,12,16,04,57,-11.30
2016,12,16,04,58,-11.30
2016,12,16,04,59,-11.30
2016,12,16,05,00,-11.30
2016,12,16,05,01,-11.30
2016,12,16,05,02,-11.30
2016,12,16,05,03,-11.30
2016,12,16,05,04,-11.30
2016,12,16,05,05,-11.20
2016,12,16,05,06,-11.20
2016,12,16,05,07,-11.20
2016,12,16,05,08,-11.20
2016,12,16,05,09,-11.20
2016,12,16,05,10,-11.20
2016,12,16,05,11,-11.20
2016,12,16,05,12,-11.20
2016,12,16,05,13,-11.20
2016,12,16,05,14,-11.20
2016,12,16,05,15,-11.20
2016,12,16,05,16,-11.20
2016,12,16,05,17,-11.20
2016,12,16,05,18,-11.20
2016,12,16,05,19,-11.20
2016,12,16,05,20,-11.20
2016,12,16,05,21,-11.20
2016,12,16,05,22,-11.20
2016,12,16,05,23,-11.20
2016,12,16,05,24,-11.20
2016,12,16,05,25,-11.20
2016,12,16,05,26,-11.20
2016,12,16,05,27,-11.20
2016,12,16,05,28,-11.20
2016,12,16,05,29,-11.30
2016,12,16,05,30,-11.30
2016,12,16,05,31,-11.30
2016,12,16,05,32,-11.30
2016,12,16,05,33,-11.30
2016,12,16,05,34,-11.30
2016,12,16,05,35,-11.30
2016,12,16,05,36,-11.30
2016,12,16,05,37,-11.30
2016,12,16,05,38,-11.30
2016,12,16,05,39,-11.30
2016,12,16,05,40,-11.40
2016,12,16,05,41,-11.40
2016,12,16,05,42,-11.40
2016,12,16,05,43,-11.40
2016,12,16,05,44,-11.40
2016,12,16,05,45,-11.40
2016,12,16,05,46,-11.50
2016,12,16,05,47,-11.50
2016,12,16,05,48,-11.50
2016,12,16,05,49,-11.50
2016,12,16,05,50,-11.50
2016,12,16,05,51,-11.50
2016,12,16,05,52,-11.50
2016,12,16,05,53,-11.50
2016,12,16,05,54,-11.50
2016,12,16,05,55,-11.60
2016,12,16,05,56,-11.60
2016,12,16,05,57,-11.60
2016,12,16,05,58,-11.50
2016,12,16,05,59,-11.60
2016,12,16,06,00,-11.60
2016,12,16,06,01,-11.60
2016,12,16,06,02,-11.60
2016,12,16,06,03,-11.60
2016,12,16,06,04,-11.50
2016,12,16,06,05,-11.50
2016,12,16,06,06,-11.50
2016,12,16,06,07,-11.50
2016,12,16,06,08,-11.50
2016,12,16,06,09,-11.50
2016,12,16,06,10,-11.50
2016,12,16,06,11,-11.50
2016,12,16,06,12,-11.50
2016,12,16,06,13,-11.50
2016,12,16,06,14,-11.50
2016,12,16,06,15,-11.40
2016,12,16,06,16,-11.40
2016,12,16,06,17,-11.40
2016,12,16,06,18,-11.40
2016,12,16,06,19,-11.40
2016,12,16,06,20,-11.40
2016,12,16,06,21,-11.40
2016,12,16,06,22,-11.40
2016,12,16,06,23,-11.40
2016,12,16,06,24,-11.40
2016,12,16,06,25,-11.40
2016,12,16,06,26,-11.50
2016,12,16,06,27,-11.50
2016,12,16,06,28,-11.50
2016,12,16,06,29,-11.50
2016,12,16,06,30,-11.50
2016,12,16,06,31,-11.50
2016,12,16,06,32,-11.50
2016,12,16,06,33,-11.50
2016,12,16,06,34,-11.50
2016,12,16,06,35,-11.50
2016,12,16,06,36,-11.50
2016,12,16,06,37,-11.50
2016,12,16,06,38,-11.50
2016,12,16,06,39,-11.50
2016,12,16,06,40,-11.50
2016,12,16,06,41,-11.50
2016,12,16,06,42,-11.60
2016,12,16,06,43,-11.50
2016,12,16,06,44,-11.50
2016,12,16,06,45,-11.50
2016,12,16,06,46,-11.50
2016,12,16,06,47,-11.50
2016,12,16,06,48,-11.50
2016,12,16,06,49,-11.50
2016,12,16,06,50,-11.50
2016,12,16,06,51,-11.50
2016,12,16,06,52,-11.50
2016,12,16,06,53,-11.50
2016,12,16,06,54,-11.50
2016,12,16,06,55,-11.50
2016,12,16,06,56,-11.50
2016,12,16,06,57,-11.50
2016,12,16,06,58,-11.50
2016,12,16,06,59,-11.50
2016,12,16,07,00,-11.50
2016,12,16,07,01,-11.60
2016,12,16,07,02,-11.60
2016,12,16,07,03,-11.60
2016,12,16,07,04,-11.60
2016,12,16,07,05,-11.60
2016,12,16,07,06,-11.60
2016,12,16,07,07,-11.60
2016,12,16,07,08,-11.60
2016,12,16,07,09,-11.60
2016,12,16,07,10,-11.60
2016,12,16,07,11,-11.60
2016,12,16,07,12,-11.60
2016,12,16,07,13,-11.60
2016,12,16,07,14,-11.60
2016,12,16,07,15,-11.60
2016,12,16,07,16,-11.60
2016,12,16,07,17,-11.60
2016,12,16,07,18,-11.70
2016,12,16,07,19,-11.60
2016,12,16,07,20,-11.60
2016,12,16,07,21,-11.70
2016,12,16,07,22,-11.70
2016,12,16,07,23,-11.70
2016,12,16,07,24,-11.70
2016,12,16,07,25,-11.70
2016,12,16,07,26,-11.70
2016,12,16,07,27,-11.70
2016,12,16,07,28,-11.70
2016,12,16,07,29,-11.70
2016,12,16,07,30,-11.70
2016,12,16,07,31,-11.70
2016,12,16,07,32,-11.70
2016,12,16,07,33,-11.70
2016,12,16,07,34,-11.70
2016,12,16,07,35,-11.70
2016,12,16,07,36,-11.70
2016,12,16,07,37,-11.70
2016,12,16,07,38,-11.70
2016,12,16,07,39,-11.70
2016,12,16,07,40,-11.70
2016,12,16,07,41,-11.70
2016,12,16,07,42,-11.70
2016,12,16,07,43,-11.60
2016,12,16,07,44,-11.60
2016,12,16,07,45,-11.60
2016,12,16,07,46,-11.60
2016,12,16,07,47,-11.60
2016,12,16,07,48,-11.60
2016,12,16,07,49,-11.60
2016,12,16,07,50,-11.60
2016,12,16,07,51,-11.70
2016,12,16,07,52,-11.70
2016,12,16,07,53,-11.70
2016,12,16,07,54,-11.70
2016,12,16,07,55,-11.70
2016,12,16,07,56,-11.70
2016,12,16,07,57,-11.70
2016,12,16,07,58,-11.70
2016,12,16,07,59,-11.70
2016,12,16,08,00,-11.70
2016,12,16,08,01,-11.70
2016,12,16,08,02,-11.70
2016,12,16,08,03,-11.70
2016,12,16,08,04,-11.70
2016,12,16,08,05,-11.70
2016,12,16,08,06,-11.70
2016,12,16,08,07,-11.70
2016,12,16,08,08,-11.70
2016,12,16,08,09,-11.70
2016,12,16,08,10,-11.70
2016,12,16,08,11,-11.70
2016,12,16,08,12,-11.80
2016,12,16,08,13,-11.80
2016,12,16,08,14,-11.80
2016,12,16,08,15,-11.80
2016,12,16,08,16,-11.80
2016,12,16,08,17,-11.80
2016,12,16,08,18,-11.80
2016,12,16,08,19,-11.70
2016,12,16,08,20,-11.80
2016,12,16,08,21,-11.70
2016,12,16,08,22,-11.80
2016,12,16,08,23,-11.80
2016,12,16,08,24,-11.80
2016,12,16,08,25,-11.80
2016,12,16,08,26,-11.80
2016,12,16,08,27,-11.80
2016,12,16,08,28,-11.80
2016,12,16,08,29,-11.80
2016,12,16,08,30,-11.80
2016,12,16,08,31,-11.80
2016,12,16,08,32,-11.80
2016,12,16,08,33,-11.80
2016,12,16,08,34,-11.80
2016,12,16,08,35,-11.80
2016,12,16,08,36,-11.90
2016,12,16,08,37,-11.90
2016,12,16,08,38,-11.90
2016,12,16,08,39,-11.90
2016,12,16,08,40,-11.90
2016,12,16,08,41,-11.90
2016,12,16,08,42,-11.90
2016,12,16,08,43,-11.90
2016,12,16,08,44,-11.90
2016,12,16,08,45,-11.90
2016,12,16,08,46,-11.90
2016,12,16,08,47,-11.90
2016,12,16,08,48,-11.90
2016,12,16,08,49,-11.90
2016,12,16,08,50,-11.90
2016,12,16,08,51,-11.90
2016,12,16,08,52,-11.90
2016,12,16,08,53,-11.90
2016,12,16,08,54,-11.90
2016,12,16,08,55,-11.90
2016,12,16,08,56,-11.90
2016,12,16,08,57,-11.90
2016,12,16,08,58,-11.90
2016,12,16,08,59,-11.90
2016,12,16,09,00,-11.90
2016,12,16,09,01,-11.80
2016,12,16,09,02,-11.80
2016,12,16,09,03,-11.80
2016,12,16,09,04,-11.80
2016,12,16,09,05,-11.80
2016,12,16,09,06,-11.80
2016,12,16,09,07,-11.80
2016,12,16,09,08,-11.80
2016,12,16,09,09,-11.80
2016,12,16,09,10,-11.80
2016,12,16,09,11,-11.80
2016,12,16,09,12,-11.80
2016,12,16,09,13,-11.80
2016,12,16,09,14,-11.80
2016,12,16,09,15,-11.70
2016,12,16,09,16,-11.70
2016,12,16,09,17,-11.60
2016,12,16,09,18,-11.60
2016,12,16,09,19,-11.60
2016,12,16,09,20,-11.50
2016,12,16,09,21,-11.50
2016,12,16,09,22,-11.40
2016,12,16,09,23,-11.30
2016,12,16,09,24,-11.30
2016,12,16,09,25,-11.20
2016,12,16,09,26,-11.20
2016,12,16,09,27,-11.10
2016,12,16,09,28,-11.00
2016,12,16,09,29,-11.00
2016,12,16,09,30,-10.90
2016,12,16,09,31,-10.90
2016,12,16,09,32,-10.90
2016,12,16,09,33,-10.80
2016,12,16,09,34,-10.80
2016,12,16,09,35,-10.70
2016,12,16,09,36,-10.70
2016,12,16,09,37,-10.60
2016,12,16,09,38,-10.50
2016,12,16,09,39,-10.40
2016,12,16,09,40,-10.40
2016,12,16,09,41,-10.30
2016,12,16,09,42,-10.30
2016,12,16,09,43,-10.30
2016,12,16,09,44,-10.20
2016,12,16,09,45,-10.20
2016,12,16,09,46,-10.20
2016,12,16,09,47,-10.10
2016,12,16,09,48,-10.10
2016,12,16,09,49,-10.00
2016,12,16,09,50,-10.00
2016,12,16,09,51,-10.00
2016,12,16,09,52,-9.90
2016,12,16,09,53,-9.90
2016,12,16,09,54,-9.90
2016,12,16,09,55,-9.80
2016,12,16,09,56,-9.80
2016,12,16,09,57,-9.70
2016,12,16,09,58,-9.70
2016,12,16,09,59,-9.60
2016,12,16,10,00,-9.50
2016,12,16,10,01,-9.50
2016,12,16,10,02,-9.40
2016,12,16,10,03,-9.40
2016,12,16,10,04,-9.30
2016,12,16,10,05,-9.30
2016,12,16,10,06,-9.30
2016,12,16,10,07,-9.30
2016,12,16,10,08,-9.30
2016,12,16,10,09,-9.30
2016,12,16,10,10,-9.30
2016,12,16,10,11,-9.30
2016,12,16,10,12,-9.30
2016,12,16,10,13,-9.30
2016,12,16,10,14,-9.30
2016,12,16,10,15,-9.30
2016,12,16,10,16,-9.30
2016,12,16,10,17,-9.20
2016,12,16,10,18,-9.20
2016,12,16,10,19,-9.20
2016,12,16,10,20,-9.10
2016,12,16,10,21,-9.00
2016,12,16,10,22,-8.90
2016,12,16,10,23,-8.80
2016,12,16,10,24,-8.80
2016,12,16,10,25,-8.70
2016,12,16,10,26,-8.60
2016,12,16,10,27,-8.60
2016,12,16,10,28,-8.50
2016,12,16,10,29,-8.50
2016,12,16,10,30,-8.40
2016,12,16,10,31,-8.40
2016,12,16,10,32,-8.30
2016,12,16,10,33,-8.30
2016,12,16,10,34,-8.30
2016,12,16,10,35,-8.20
2016,12,16,10,36,-8.20
2016,12,16,10,37,-8.20
2016,12,16,10,38,-8.10
2016,12,16,10,39,-8.00
2016,12,16,10,40,-7.90
2016,12,16,10,41,-7.80
2016,12,16,10,42,-7.70
2016,12,16,10,43,-7.60
2016,12,16,10,44,-7.50
2016,12,16,10,45,-7.40
2016,12,16,10,46,-7.30
2016,12,16,10,47,-7.20
2016,12,16,10,48,-7.10
2016,12,16,10,49,-7.00
2016,12,16,10,50,-6.90
2016,12,16,10,51,-7.00
2016,12,16,10,52,-7.00
2016,12,16,10,53,-7.10
2016,12,16,10,54,-7.10
2016,12,16,10,55,-7.20
2016,12,16,10,56,-7.20
2016,12,16,10,57,-7.30
2016,12,16,10,58,-7.30
2016,12,16,10,59,-7.30
2016,12,16,11,00,-7.30
2016,12,16,11,01,-7.30
2016,12,16,11,02,-7.30
2016,12,16,11,03,-7.20
2016,12,16,11,04,-7.20
2016,12,16,11,05,-7.10
2016,12,16,11,06,-7.10
2016,12,16,11,07,-7.10
2016,12,16,11,08,-7.10
2016,12,16,11,09,-7.10
2016,12,16,11,10,-7.10
2016,12,16,11,11,-7.10
2016,12,16,11,12,-7.10
2016,12,16,11,13,-7.00
2016,12,16,11,14,-7.00
2016,12,16,11,15,-6.90
2016,12,16,11,16,-6.90
2016,12,16,11,17,-6.80
2016,12,16,11,18,-6.70
2016,12,16,11,19,-6.70
2016,12,16,11,20,-6.60
2016,12,16,11,21,-6.60
2016,12,16,11,22,-6.50
2016,12,16,11,23,-6.40
2016,12,16,11,24,-6.40
2016,12,16,11,25,-6.30
2016,12,16,11,26,-6.20
2016,12,16,11,27,-6.20
2016,12,16,11,28,-6.20
2016,12,16,11,29,-6.20
2016,12,16,11,30,-6.20
2016,12,16,11,31,-6.20
2016,12,16,11,32,-6.20
2016,12,16,11,33,-6.20
2016,12,16,11,34,-6.10
2016,12,16,11,35,-6.10
2016,12,16,11,36,-6.10
2016,12,16,11,37,-6.00
2016,12,16,11,38,-6.00
2016,12,16,11,39,-5.90
2016,12,16,11,40,-5.90
2016,12,16,11,41,-5.90
2016,12,16,11,42,-5.90
2016,12,16,11,43,-5.90
2016,12,16,11,44,-5.80
2016,12,16,11,45,-5.80
2016,12,16,11,46,-5.70
2016,12,16,11,47,-5.70
2016,12,16,11,48,-5.60
2016,12,16,11,49,-5.60
2016,12,16,11,50,-5.60
2016,12,16,11,51,-5.50
2016,12,16,11,52,-5.50
2016,12,16,11,53,-5.40
2016,12,16,11,54,-5.30
2016,12,16,11,55,-5.30
2016,12,16,11,56,-5.20
2016,12,16,11,57,-5.20
2016,12,16,11,58,-5.20
2016,12,16,11,59,-5.20
2016,12,16,12,00,-5.20
2016,12,16,12,01,-5.20
2016,12,16,12,02,-5.10
2016,12,16,12,03,-5.10
2016,12,16,12,04,-5.10
2016,12,16,12,05,-5.10
2016,12,16,12,06,-5.10
2016,12,16,12,07,-5.10
2016,12,16,12,08,-5.10
2016,12,16,12,09,-5.10
2016,12,16,12,10,-5.00
2016,12,16,12,11,-4.90
2016,12,16,12,12,-4.80
2016,12,16,12,13,-4.70
2016,12,16,12,14,-4.60
2016,12,16,12,15,-4.50
2016,12,16,12,16,-4.40
2016,12,16,12,17,-4.30
2016,12,16,12,18,-4.30
2016,12,16,12,19,-4.20
2016,12,16,12,20,-4.20
2016,12,16,12,21,-4.10
2016,12,16,12,22,-4.00
2016,12,16,12,23,-4.00
2016,12,16,12,24,-3.90
2016,12,16,12,25,-3.80
2016,12,16,12,26,-3.70
2016,12,16,12,27,-3.60
2016,12,16,12,28,-3.50
2016,12,16,12,29,-3.40
2016,12,16,12,30,-3.30
2016,12,16,12,31,-3.30
2016,12,16,12,32,-3.20
2016,12,16,12,33,-3.10
2016,12,16,12,34,-3.00
2016,12,16,12,35,-2.90
2016,12,16,12,36,-2.90
2016,12,16,12,37,-2.80
2016,12,16,12,38,-2.80
2016,12,16,12,39,-2.80
2016,12,16,12,40,-2.80
2016,12,16,12,41,-2.80
2016,12,16,12,42,-2.90
2016,12,16,12,43,-3.00
2016,12,16,12,44,-3.00
2016,12,16,12,45,-3.10
2016,12,16,12,46,-3.20
2016,12,16,12,47,-3.30
2016,12,16,12,48,-3.40
2016,12,16,12,49,-3.50
2016,12,16,12,50,-3.60
2016,12,16,12,51,-3.60
2016,12,16,12,52,-3.70
2016,12,16,12,53,-3.70
2016,12,16,12,54,-3.80
2016,12,16,12,55,-3.80
2016,12,16,12,56,-3.80
2016,12,16,12,57,-3.90
2016,12,16,12,58,-3.90
2016,12,16,12,59,-3.90
2016,12,16,13,00,-3.90
2016,12,16,13,01,-3.90
2016,12,16,13,02,-3.90
2016,12,16,13,03,-3.90
2016,12,16,13,04,-3.90
2016,12,16,13,05,-3.90
2016,12,16,13,06,-3.90
2016,12,16,13,07,-3.90
2016,12,16,13,08,-3.90
2016,12,16,13,09,-3.80
2016,12,16,13,10,-3.80
2016,12,16,13,11,-3.80
2016,12,16,13,12,-3.80
2016,12,16,13,13,-3.80
2016,12,16,13,14,-3.70
2016,12,16,13,15,-3.70
2016,12,16,13,16,-3.70
2016,12,16,13,17,-3.70
2016,12,16,13,18,-3.60
2016,12,16,13,19,-3.60
2016,12,16,13,20,-3.50
2016,12,16,13,21,-3.50
2016,12,16,13,22,-3.40
2016,12,16,13,23,-3.40
2016,12,16,13,24,-3.40
2016,12,16,13,25,-3.30
2016,12,16,13,26,-3.20
2016,12,16,13,27,-3.10
2016,12,16,13,28,-2.90
2016,12,16,13,29,-2.80
2016,12,16,13,30,-2.70
2016,12,16,13,31,-2.60
2016,12,16,13,32,-2.50
2016,12,16,13,33,-2.40
2016,12,16,13,34,-2.30
2016,12,16,13,35,-2.20
2016,12,16,13,36,-2.10
2016,12,16,13,37,-2.00
2016,12,16,13,38,-1.90
2016,12,16,13,39,-1.90
2016,12,16,13,40,-1.90
2016,12,16,13,41,-1.80
2016,12,16,13,42,-1.80
2016,12,16,13,43,-1.80
2016,12,16,13,44,-1.80
2016,12,16,13,45,-1.80
2016,12,16,13,46,-1.70
2016,12,16,13,47,-1.70
2016,12,16,13,48,-1.70
2016,12,16,13,49,-1.60
2016,12,16,13,50,-1.50
2016,12,16,13,51,-1.50
2016,12,16,13,52,-1.50
2016,12,16,13,53,-1.50
2016,12,16,13,54,-1.50
2016,12,16,13,55,-1.60
2016,12,16,13,56,-1.60
2016,12,16,13,57,-1.70
2016,12,16,13,58,-1.80
2016,12,16,13,59,-1.80
2016,12,16,14,00,-1.90
2016,12,16,14,01,-2.00
2016,12,16,14,02,-2.20
2016,12,16,14,03,-2.30
2016,12,16,14,04,-2.30
2016,12,16,14,05,-2.40
2016,12,16,14,06,-2.50
2016,12,16,14,07,-2.50
2016,12,16,14,08,-2.60
2016,12,16,14,09,-2.60
2016,12,16,14,10,-2.60
2016,12,16,14,11,-2.70
2016,12,16,14,12,-2.70
2016,12,16,14,13,-2.70
2016,12,16,14,14,-2.70
2016,12,16,14,15,-2.70
2016,12,16,14,16,-2.70
2016,12,16,14,17,-2.70
2016,12,16,14,18,-2.70
2016,12,16,14,19,-2.80
2016,12,16,14,20,-2.80
2016,12,16,14,21,-2.80
2016,12,16,14,22,-2.80
2016,12,16,14,23,-2.80
2016,12,16,14,24,-2.80
2016,12,16,14,25,-2.80
2016,12,16,14,26,-2.80
2016,12,16,14,27,-2.80
2016,12,16,14,28,-2.80
2016,12,16,14,29,-2.80
2016,12,16,14,30,-2.80
2016,12,16,14,31,-2.80
2016,12,16,14,32,-2.80
2016,12,16,14,33,-2.80
2016,12,16,14,34,-2.80
2016,12,16,14,35,-2.80
2016,12,16,14,36,-2.90
2016,12,16,14,37,-2.90
2016,12,16,14,38,-2.90
2016,12,16,14,39,-3.00
2016,12,16,14,40,-3.00
2016,12,16,14,41,-3.10
2016,12,16,14,42,-3.10
2016,12,16,14,43,-3.10
2016,12,16,14,44,-3.20
2016,12,16,14,45,-3.20
2016,12,16,14,46,-3.20
2016,12,16,14,47,-3.20
2016,12,16,14,48,-3.20
2016,12,16,14,49,-3.30
2016,12,16,14,50,-3.30
2016,12,16,14,51,-3.40
2016,12,16,14,52,-3.40
2016,12,16,14,53,-3.50
2016,12,16,14,54,-3.50
2016,12,16,14,55,-3.50
2016,12,16,14,56,-3.60
2016,12,16,14,57,-3.60
2016,12,16,14,58,-3.70
2016,12,16,14,59,-3.70
2016,12,16,15,00,-3.80
2016,12,16,15,01,-3.90
2016,12,16,15,02,-4.00
2016,12,16,15,03,-4.00
2016,12,16,15,04,-4.10
2016,12,16,15,05,-4.20
2016,12,16,15,06,-4.20
2016,12,16,15,07,-4.30
2016,12,16,15,08,-4.40
2016,12,16,15,09,-4.40
2016,12,16,15,10,-4.50
2016,12,16,15,11,-4.60
2016,12,16,15,12,-4.60
2016,12,16,15,13,-4.70
2016,12,16,15,14,-4.70
2016,12,16,15,15,-4.80
2016,12,16,15,16,-4.80
2016,12,16,15,17,-4.80
2016,12,16,15,18,-4.90
2016,12,16,15,19,-4.90
2016,12,16,15,20,-5.00
2016,12,16,15,21,-5.00
2016,12,16,15,22,-5.10
2016,12,16,15,23,-5.20
2016,12,16,15,24,-5.20
2016,12,16,15,25,-5.30
2016,12,16,15,26,-5.30
2016,12,16,15,27,-5.30
2016,12,16,15,28,-5.40
2016,12,16,15,29,-5.40
2016,12,16,15,30,-5.50
2016,12,16,15,31,-5.50
2016,12,16,15,32,-5.50
2016,12,16,15,33,-5.60
2016,12,16,15,34,-5.60
2016,12,16,15,35,-5.60
2016,12,16,15,36,-5.70
2016,12,16,15,37,-5.70
2016,12,16,15,38,-5.70
2016,12,16,15,39,-5.70
2016,12,16,15,40,-5.70
2016,12,16,15,41,-5.70
2016,12,16,15,42,-5.70
2016,12,16,15,43,-5.70
2016,12,16,15,44,-5.70
2016,12,16,15,45,-5.70
2016,12,16,15,46,-5.70
2016,12,16,15,47,-5.70
2016,12,16,15,48,-5.70
2016,12,16,15,49,-5.80
2016,12,16,15,50,-5.80
2016,12,16,15,51,-5.80
2016,12,16,15,52,-5.80
2016,12,16,15,53,-5.80
2016,12,16,15,54,-5.80
2016,12,16,15,55,-5.80
2016,12,16,15,56,-5.80
2016,12,16,15,57,-5.80
2016,12,16,15,58,-5.80
2016,12,16,15,59,-5.80
2016,12,16,16,00,-5.80
2016,12,16,16,01,-5.90
2016,12,16,16,02,-5.90
2016,12,16,16,03,-5.90
2016,12,16,16,04,-6.00
2016,12,16,16,05,-6.00
2016,12,16,16,06,-6.00
2016,12,16,16,07,-6.10
2016,12,16,16,08,-6.10
2016,12,16,16,09,-6.10
2016,12,16,16,10,-6.20
2016,12,16,16,11,-6.20
2016,12,16,16,12,-6.20
2016,12,16,16,13,-6.30
2016,12,16,16,14,-6.30
2016,12,16,16,15,-6.30
2016,12,16,16,16,-6.30
2016,12,16,16,17,-6.30
2016,12,16,16,18,-6.30
2016,12,16,16,19,-6.30
2016,12,16,16,20,-6.30
2016,12,16,16,21,-6.30
2016,12,16,16,22,-6.30
2016,12,16,16,23,-6.30
2016,12,16,16,24,-6.40
2016,12,16,16,25,-6.40
2016,12,16,16,26,-6.40
2016,12,16,16,27,-6.40
2016,12,16,16,28,-6.40
2016,12,16,16,29,-6.40
2016,12,16,16,30,-6.50
2016,12,16,16,31,-6.50
2016,12,16,16,32,-6.50
2016,12,16,16,33,-6.50
2016,12,16,16,34,-6.50
2016,12,16,16,35,-6.50
2016,12,16,16,36,-6.60
2016,12,16,16,37,-6.60
2016,12,16,16,38,-6.60
2016,12,16,16,39,-6.60
2016,12,16,16,40,-6.60
2016,12,16,16,41,-6.60
2016,12,16,16,42,-6.60
2016,12,16,16,43,-6.60
2016,12,16,16,44,-6.70
2016,12,16,16,45,-6.70
2016,12,16,16,46,-6.70
2016,12,16,16,47,-6.70
2016,12,16,16,48,-6.70
2016,12,16,16,49,-6.70
2016,12,16,16,50,-6.70
2016,12,16,16,51,-6.80
2016,12,16,16,52,-6.80
2016,12,16,16,53,-6.80
2016,12,16,16,54,-6.80
2016,12,16,16,55,-6.80
2016,12,16,16,56,-6.80